Regional Weather Roundup
Issued by NWS

Home | Current Version | Previous Version | Graphics & Text | Print | Product List | Glossary Off
Versions: 1 2 3 4 5 6 7 8 9 10 11 12 13 14 15 16 17 18 19 20 21 22 23 24 25 26 27 28 29 30 31 32 33 34 35 36 37 38 39 40 41 42 43 44 45 46 47 48 49 50

000
ASUS43 KMKX 221500
RWRWI

WISCONSIN REGIONAL WEATHER ROUNDUP
NATIONAL WEATHER SERVICE MILWAUKEE/SULLIVAN WI
1000 AM CDT MON SEP 22 2014

NOTE: "FAIR" INDICATES FEW OR NO CLOUDS BELOW 12,000 FEET WITH NO
SIGNIFICANT WEATHER AND/OR OBSTRUCTIONS TO VISIBILITY.

WIZ001-002-006>008-014>016-023>028-221600-
NORTHWEST WISCONSIN

CITY           SKY/WX    TMP DP  RH WIND       PRES   REMARKS
SUPERIOR ARPT  SUNNY     54  49  85 SW7       30.21S
ASHLAND        SUNNY     57  50  77 SW9       30.21S
HAYWARD        PTSUNNY   49  48  97 S6        30.24S
SIREN          PTSUNNY   51  51  99 W5        30.25R
RICE LAKE      MOSUNNY   52  51  95 W6        30.26R
LADYSMITH      CLOUDY    49  48  97 CALM      30.26R
EAU CLAIRE     NOT AVBL
MENOMONIE      SUNNY     55  49  81 W5        30.26R
NEW RICHMOND   MOSUNNY   51  51 100 W5        30.27S
OSCEOLA        MOSUNNY   52  52 100 SW6       30.29S
$$

WIZ003>005-009-010-017-018-221600-
NORTH CENTRAL WISCONSIN

CITY           SKY/WX    TMP DP  RH WIND       PRES   REMARKS
WOODRUFF       SUNNY     55  49  81 W6        30.21R
RHINELANDER    SUNNY     55  46  71 W9        30.23R
EAGLE RIVER    SUNNY     55  46  73 W8        30.20S
LAND O LAKES   MOSUNNY   54  47  77 W6        30.20S
PHILLIPS       SUNNY     52  48  86 W3        30.22R
TOMAHAWK       SUNNY     54  46  74 W5        30.23R
MEDFORD        SUNNY     53  46  79 W3        30.24R
MERRILL        SUNNY     53  46  78 W5        30.23R
$$

WIZ029-030-035-036-043>047-221600-
CENTRAL WISCONSIN

CITY           SKY/WX    TMP DP  RH WIND       PRES   REMARKS
WAUSAU         SUNNY     56  45  66 NW6       30.23R
MOSINEE        SUNNY     55  48  76 W6        30.25R
MARSHFIELD     SUNNY     57  49  74 W7        30.25R
STEVENS POINT  SUNNY     52  43  73 W3        30.25S
WAUPACA        SUNNY     58  46  65 W3        30.24S
WAUTOMA        NOT AVBL
WISC RAPIDS    SUNNY     56  48  74 SW6       30.27R
CAMP DOUGLAS   NOT AVBL
$$

WIZ011>013-019>022-031-037>040-048>050-221600-
NORTHEAST WISCONSIN

CITY           SKY/WX    TMP DP  RH WIND       PRES   REMARKS
ANTIGO         SUNNY     51  44  77 W5        30.24R
STURGEON BAY   CLOUDY    54  45  71 W5        30.22R
GREEN BAY      SUNNY     55  47  74 W7        30.24R
MANITOWOC      NOT AVBL
APPLETON       MOSUNNY   52  46  82 W9        30.24S
CLINTONVILLE   SUNNY     52  43  71 W5        30.23S
OSHKOSH        SUNNY     55  45  68 W7        30.25R
$$

WIZ032>034-041-042-053>061-221600-
SOUTHWEST WISCONSIN

CITY           SKY/WX    TMP DP  RH WIND       PRES   REMARKS
LA CROSSE      SUNNY     54  49  83 S8        30.28R
SPARTA         SUNNY     52  46  82 SW3       30.28R
VIROQUA        FAIR      55  49  80 SW8       30.28R
BOSCOBEL       SUNNY     54  47  77 SW6       30.31R
PRAIRIE DU CHI SUNNY     51  50  96 CALM      30.30R
PLATTEVILLE    FAIR      55  46  73 SW7       30.31R
$$

WIZ056-057-062-063-064-067-068-221600-
SOUTH CENTRAL WISCONSIN

CITY           SKY/WX    TMP DP  RH WIND       PRES   REMARKS
BARABOO/DELLS  SUNNY     55  43  64 W7        30.27S
LONE ROCK      MOSUNNY   52  47  83 CALM      30.29S
WATERTOWN      SUNNY     53  45  75 CALM      30.27S
MADISON        SUNNY     57  43  59 SW6       30.28R
MIDDLETON      FAIR      57  44  61 W5        30.28S
MONROE         SUNNY     54  41  62 W7        30.29R
JANESVILLE     SUNNY     55  43  62 NW7       30.29R
$$

WIZ051-052-058>065-066-070>072-221600-
SOUTHEAST WISCONSIN

CITY           SKY/WX    TMP DP  RH WIND       PRES   REMARKS
MILWAUKEE      SUNNY     55  41  59 W6        30.28R
WAUKESHA       SUNNY     54  43  66 W8        30.28S
MILWAUKEE/TIMM SUNNY     54  39  58 W6        30.27F
RACINE         SUNNY     55  44  66 W9        30.29S
BURLINGTON     SUNNY     51  44  75 NW3       30.28R
KENOSHA        SUNNY     54  44  69 NW7       30.29R
FOND DU LAC    SUNNY     56  46  69 VRB3      30.26R
SHEBOYGAN      SUNNY     57  44  62 W10       30.25R
WEST BEND      SUNNY     54  39  58 W8        30.25S
JUNEAU         SUNNY     51  44  78 SW5       30.27F
$$

LSZ147-162-221600-
LAKE SUPERIOR

STATION/POSITION TIME  TEMP    WIND        PRES    WAVE
                       AIR SEA DIR/SP/G            HT/PER
                 (UTC) (F)     (DEG/KT/KT) (MB)    (FT/S)
W MID LAKE BUOY  1350   49 47  240/ 10/ 12 1021.0S   1/ 3
DEVILS ISLAND    1400   52     230/ 15/ 17 1022.0S
PORT WING        1400   52     190/  4/  6 1023.0R
SAXON HARBOR     1400   54     190/  5/  7 1022.7
$$

LMZ867-665-643>646-221600-
LAKE MICHIGAN

STATION/POSITION TIME  TEMP    WIND        PRES    WAVE
                       AIR SEA DIR/SP/G            HT/PER
                 (UTC) (F)     (DEG/KT/KT) (MB)    (FT/S)
N MID LAKE BUOY  1350   50 57  250/ 12/ 14 1022.5S   1/ 3
NORTHPORT PIER   1400   52     270/  1/ 10 1022.4F
KEWAUNEE LAKESHO 1400   49     280/  6/  9 1022.2S
SHEBOYGAN LAKESH 1400   50 53  280/  7/  9 1024.5F
PORT WASHINGTON  1440   56     290/  5/ 10 1025.1R
ATWATER BUOY     1400   51     280/  6/  8 1025.6R
MILWAUKEE LAKESH 1400   51     280/ 10/ 11   N/A
S MID LAKE BUOY  1350   54 61  340/ 10/ 12 1024.6R   4/ 7
KENOSHA   LAKESH 1400   51     290/  7/  9 1025.1R
$$

TC  - TEMPERATURE IN CELSIUS
VSB - VISIBILITY IN STATUTE MILES
WCI - WIND CHILL INDEX
HX  - HEAT INDEX



USA.gov is the U.S. government's official web portal to all federal, state and local government web resources and services.